{"data":{"norad_id":45074,"intl_designator":"2020-006AG","name":"STARLINK-1172","alt_names":[],"object_type":"PAYLOAD","status":"ACTIVE","operator":null,"country":"US","launch_date":"2020-01-29","launch_site_code":"AFETR","launch_vehicle":null,"mission":null,"orbit_class":"UNKNOWN","rcs_meters":null,"size_class":null,"mass_kg":null,"dimensions":null,"purposes":["comms"],"wikipedia_slug":null,"has_3d_model":false,"image_url":null,"decayed_at":null,"tle_current":{"epoch":"2026-05-25T00:25:53.832288Z","epoch_age_seconds":87696,"freshness":"FRESH","line1":"1 45074U 20006AG  26145.01798417  .00043838  00000+0  11974-2 0  9992","line2":"2 45074  53.1539 261.3850 0002691 278.7007  81.3691 15.36997628348584","mean_motion":15.36997628,"eccentricity":0.0002691,"inclination_deg":53.1539,"raan_deg":261.385,"arg_perigee_deg":278.7007,"mean_anomaly_deg":81.3691,"bstar":0.0011974,"rev_number":34858,"period_min":93.689149141615,"perigee_km":453.15462275652,"apogee_km":456.83221354757,"semimajor_km":6833.130418152,"source":"CELESTRAK","updated_at":"2026-05-25T13:38:16.379362Z"}}}